Weather History for KEKN - January, 2012

Change the Weather History Date:

Thursday, January 26, 2012

  Actual Average Record
Temperature  
Mean Temperature 50 °F 29 °F  
Max Temperature 59 °F 39 °F 71 °F (1950)
Min Temperature 41 °F 20 °F -12 °F (1985)
Degree Days  
Heating Degree Days 15 36  
Month to date heating degree days 825 936  
Since 1 July heating degree days 2776 3227  
Cooling Degree Days 0 0  
Month to date cooling degree days 0 0  
Year to date cooling degree days 0 0  
Moisture  
Dew Point 45 °F    
Average Humidity 82    
Maximum Humidity 93    
Minimum Humidity 70    
Precipitation  
Precipitation 0.06 in 0.11 in 1.30 in (1943)
Month to date precipitation 1.38 2.71  
Year to date precipitation 1.38 2.71  
Snow  
Snow 0.00 in - - ()
Month to date snowfall 13.1  
Snow Depth 0.00 in    
Sea Level Pressure  
Sea Level Pressure 29.86 in    
Wind  
Wind Speed 2 mph (SE)    
Max Wind Speed 15 mph    
Max Gust Speed 21 mph    
Visibility 5 miles    
Events Fog , Rain    
T = Trace of Precipitation, MM = Missing Value Source: NWS Daily Summary

Daily Weather History Graph

Daily Weather History Graph

Search for Another Location

Airport or City:

Trip Planner

Search our weather history database for the weather conditions in past years. The results will help you decide how hot, cold, wet, or windy it might be!

Date:

Astronomy

Jan. 26, 2012 Rise Set
Actual Time 7:30 AM EST 5:33 PM EST
Civil Twilight 7:02 AM EST 6:01 PM EST
Nautical Twilight 6:30 AM EST 6:34 PM EST
Astronomical Twilight 5:58 AM EST 7:05 PM EST
Moon 9:00 AM EST (1/26) 9:21 PM EST (1/26)
Length of Visible Light 10h 59m
Length of Day
10h 02m
Waxing Crescent, 12% of the Moon is Illuminated
Jan 26
Waxing Crescent
Jan 30
First Quarter
Feb 7
Full
Feb 14
Last Quarter
Feb 21
New

Hourly Weather History & Observations

Time (EST) Temp. Windchill Dew Point Humidity Pressure Visibility Wind Dir Wind Speed Gust Speed Precip Events Conditions
12:51 AM 42.1 °F - 34.0 °F 73% 30.14 in 10.0 mi Calm Calm - N/A   Overcast
1:51 AM 42.1 °F - 33.1 °F 70% 30.13 in 10.0 mi Calm Calm - N/A   Overcast
2:51 AM 43.0 °F - 34.0 °F 71% 30.11 in 10.0 mi Calm Calm - 0.00 in   Overcast
3:51 AM 42.1 °F - 36.0 °F 79% 30.09 in 10.0 mi Calm Calm - 0.00 in   Overcast
4:51 AM 42.1 °F - 37.0 °F 82% 30.09 in 8.0 mi Calm Calm - 0.00 in Rain Light Rain
5:02 AM 41.0 °F - 37.4 °F 87% 30.05 in 5.0 mi Calm Calm - 0.00 in Rain Light Rain
5:31 AM 41.0 °F - 39.2 °F 93% 30.05 in 8.0 mi Calm Calm - 0.00 in Rain Light Rain
5:51 AM 41.0 °F 39.0 °F 37.9 °F 89% 30.07 in 8.0 mi WNW 3.5 mph - 0.00 in Rain Light Rain
6:51 AM 41.0 °F - 37.9 °F 89% 30.06 in 7.0 mi Calm Calm - 0.00 in   Overcast
7:51 AM 41.0 °F - 39.0 °F 93% 30.03 in 6.0 mi Calm Calm - N/A   Overcast
8:51 AM 42.1 °F - 39.0 °F 89% 30.01 in 6.0 mi Calm Calm - N/A   Overcast
9:51 AM 44.1 °F - 39.9 °F 85% 29.99 in 6.0 mi Calm Calm - 0.00 in Rain Light Rain
10:51 AM 45.0 °F - 42.1 °F 90% 29.98 in 8.0 mi Calm Calm - 0.00 in   Overcast
11:51 AM 46.9 °F - 44.1 °F 90% 29.92 in 5.0 mi Calm Calm - 0.00 in   Overcast
12:34 PM 48.2 °F - 44.6 °F 87% 29.88 in 1.8 mi Calm Calm - 0.02 in Rain Rain
12:47 PM 48.2 °F - 46.4 °F 93% 29.87 in 2.5 mi Calm Calm - 0.04 in Rain Rain
12:51 PM 48.0 °F - 46.0 °F 93% 29.90 in 2.5 mi Calm Calm - 0.04 in Rain Light Rain
1:23 PM 50.0 °F - 48.2 °F 94% 29.84 in 3.0 mi Calm Calm - 0.00 in Rain Light Rain
1:51 PM 48.0 °F - 46.0 °F 93% 29.87 in 2.5 mi Calm Calm - 0.00 in Rain Light Rain
2:23 PM 50.0 °F - 48.2 °F 94% 29.83 in 4.0 mi Calm Calm - 0.01 in Rain Light Rain
2:51 PM 50.0 °F - 48.0 °F 93% 29.86 in 5.0 mi Calm Calm - 0.01 in Rain Light Rain
3:05 PM 50.0 °F - 48.2 °F 94% 29.83 in 2.0 mi Calm Calm - 0.01 in Rain Rain
3:40 PM 51.8 °F - 50.0 °F 94% 29.82 in 4.0 mi Calm Calm - 0.01 in Rain Light Rain
3:51 PM 53.1 °F - 50.0 °F 89% 29.84 in 5.0 mi ESE 3.5 mph - 0.01 in Rain Light Rain
4:51 PM 51.1 °F - 48.9 °F 92% 29.84 in 2.5 mi Calm Calm - 0.00 in Rain Light Rain
5:14 PM 51.8 °F - 51.8 °F 100% 29.80 in 8.0 mi Calm Calm - 0.00 in   Overcast
5:51 PM 54.0 °F - 51.1 °F 90% 29.82 in 8.0 mi SE 4.6 mph - 0.00 in Rain Light Rain
6:17 PM 50.0 °F - 48.2 °F 94% 29.79 in 2.5 mi Calm Calm - 0.00 in   Overcast
6:26 PM 50.0 °F - 48.2 °F 94% 29.79 in 3.0 mi Calm Calm - 0.00 in   Overcast
6:32 PM 50.0 °F - 48.2 °F 94% 29.79 in 1.8 mi Calm Calm - 0.00 in Rain Light Rain
6:51 PM 48.9 °F - 48.9 °F 100% 29.81 in 1.8 mi Calm Calm - 0.00 in   Overcast
7:29 PM 48.2 °F - 48.2 °F 100% 29.75 in 0.5 mi Calm Calm - 0.00 in Fog Fog
7:47 PM 48.2 °F - 46.4 °F 93% 29.74 in 0.2 mi Calm Calm - 0.00 in Fog Fog
7:51 PM 48.0 °F - 46.9 °F 96% 29.77 in 0.2 mi Calm Calm - 0.00 in Fog Fog
8:00 PM 48.2 °F - 46.4 °F 93% 29.73 in 0.2 mi Calm Calm - N/A Fog Fog
8:16 PM 46.4 °F - 46.4 °F 100% 29.73 in 0.5 mi Calm Calm - N/A Fog Fog
8:28 PM 46.4 °F - 46.4 °F 100% 29.72 in 1.2 mi Calm Calm - N/A   Mostly Cloudy
8:51 PM 48.0 °F - 46.9 °F 96% 29.74 in 1.2 mi Calm Calm - 0.00 in Rain Light Rain
9:01 PM 48.2 °F - 48.2 °F 100% 29.70 in 0.5 mi Calm Calm - 0.00 in Fog , Rain Light Rain
9:22 PM 48.2 °F - 46.4 °F 93% 29.68 in 1.2 mi Calm Calm - 0.00 in   Mostly Cloudy
9:49 PM 48.2 °F - 46.4 °F 93% 29.66 in 4.0 mi SSE 4.6 mph - 0.00 in   Overcast
9:51 PM 50.0 °F - 48.0 °F 93% 29.69 in 7.0 mi Variable 3.5 mph - 0.00 in   Overcast
10:01 PM 46.4 °F - 46.4 °F 100% 29.66 in 2.0 mi Calm Calm - 0.00 in Rain Light Rain
10:09 PM 48.2 °F - 46.4 °F 93% 29.66 in 8.0 mi SE 4.6 mph - 0.00 in Rain Light Rain
10:51 PM 57.9 °F - 48.9 °F 72% 29.63 in 10.0 mi SE 11.5 mph 19.6 mph 0.00 in   Overcast
11:51 PM 59.0 °F - 50.0 °F 72% 29.57 in 10.0 mi SSE 11.5 mph - 0.00 in Rain Light Rain